ECHOSTAR 21

Last updated on Tue Jul 01 2025 00:02:47 GMT+0000 (Coordinated Universal Time)

1 42749U 17032A 25181.28433111 .00000064 00000+0 00000+0 0 9997 2 42749 1.9783 334.4235 0002128 117.5559 299.2325 1.00273695 29574
UTC large
Height (km)
Speed (km/s)
/
Latitude / Longitude
Inclination (degrees)
Orbital Period (minutes)
Azimuth
Elevation
Range (km)
Doppler Factor

Next 0 passes for location: London (51.5072 / 0.1276)

Sorry there are no passes over London.